This is the latest recevied weather packets stored in our database for station/object W4TJP. If no packets are shown the sender has not sent any weather packets the latest 10 day(s).
| Time | Temp. | Humidity | Pressure | Rain* | Wind** | Luminosity | Snow |
|---|---|---|---|---|---|---|---|
| 1777736142 | 15.56° C | 45% | 1016.1 hPa | 0 mm | - | 653 W/m² | - |
| 1777735839 | 15.56° C | 46% | 1015.9 hPa | 0 mm | - | 596 W/m² | - |
| 1777735537 | 15.56° C | 45% | 1016.3 hPa | 0 mm | - | 466 W/m² | - |
| 1777735234 | 15° C | 47% | 1016.1 hPa | 0 mm | - | 662 W/m² | - |
| 1777734931 | 14.44° C | 49% | 1016 hPa | 0 mm | - | 667 W/m² | - |
| 1777734628 | 14.44° C | 45% | 1015.9 hPa | 0 mm | - | 665 W/m² | - |
| 1777734326 | 14.44° C | 49% | 1016 hPa | 0 mm | - | 773 W/m² | - |
| 1777734021 | 13.89° C | 47% | 1015.9 hPa | 0 mm | - | 687 W/m² | - |
| 1777733718 | 13.89° C | 53% | 1016 hPa | 0 mm | - | 667 W/m² | - |
| 1777733415 | 13.89° C | 46% | 1016.1 hPa | 0 mm | - | 628 W/m² | - |
| 1777733111 | 13.89° C | 51% | 1015.9 hPa | 0 mm | - | 627 W/m² | - |
| 1777732808 | 13.89° C | 51% | 1015.9 hPa | 0 mm | - | 615 W/m² | - |
| 1777732504 | 13.89° C | 49% | 1016.1 hPa | 0 mm | - | 609 W/m² | - |
| 1777732202 | 13.89° C | 51% | 1015.9 hPa | 0 mm | - | 593 W/m² | - |
| 1777731899 | 13.89° C | 50% | 1015.6 hPa | 0 mm | - | 580 W/m² | - |
| 1777731596 | 13.33° C | 51% | 1016 hPa | 0 mm | - | 566 W/m² | - |
| 1777731294 | 12.78° C | 52% | 1015.9 hPa | 0 mm | - | 563 W/m² | - |
| 1777730990 | 12.78° C | 51% | 1015.9 hPa | 0 mm | - | 539 W/m² | - |
| 1777730689 | 13.33° C | 51% | 1016.2 hPa | 0 mm | - | 512 W/m² | - |
| 1777730385 | 12.78° C | 52% | 1016.1 hPa | 0 mm | - | 493 W/m² | - |
| 1777730081 | 12.78° C | 53% | 1016 hPa | 0 mm | - | 485 W/m² | - |
| 1777729778 | 12.78° C | 55% | 1015.7 hPa | 0 mm | - | 478 W/m² | - |
| 1777729475 | 13.33° C | 55% | 1015.9 hPa | 0 mm | - | 433 W/m² | - |
| 1777729171 | 12.78° C | 55% | 1015.8 hPa | 0 mm | - | 381 W/m² | - |
| 1777728868 | 12.78° C | 57% | 1015.8 hPa | 0 mm | - | 352 W/m² | - |
* Rain latest hour (hover to see other rain measurements)
** Current wind speed in m/s (hover to see current wind gust speed)